AFL008 UOHH-UOOO

Flight info

Callsign AFL008
Flight time N/A
Altitude 32000
Route MINPI DCT VOLAS DCT LORDA
Aircraft T154/M-SDWY/S

Departure

Time 2026-04-23 22:27
Airport Khatanga Airport (UOHH)

Arrival

Time N/A
Airport Alykel International Airport (UOOO)
Time Latitude Longitude Altitude Speed Heading
2026-04-23 22:08 71.97805 102.47479 104 ft 0 kts 245°
2026-04-23 22:19 71.97805 102.47478 104 ft 0 kts 245°
2026-04-23 22:20 71.97804 102.47476 104 ft 0 kts 245°
2026-04-23 22:20 71.97804 102.47472 104 ft 0 kts 245°
2026-04-23 22:21 71.97801 102.47460 104 ft 1 kts 232°
2026-04-23 22:21 71.97791 102.47442 104 ft 2 kts 199°
2026-04-23 22:21 71.97781 102.47432 104 ft 0 kts 196°
2026-04-23 22:21 71.97771 102.47416 104 ft 2 kts 217°
2026-04-23 22:22 71.97755 102.47351 105 ft 4 kts 234°
2026-04-23 22:22 71.97739 102.47269 107 ft 4 kts 239°
2026-04-23 22:22 71.97717 102.47136 108 ft 10 kts 243°
2026-04-23 22:22 71.97678 102.46875 111 ft 16 kts 245°
2026-04-23 22:23 71.97635 102.46563 111 ft 13 kts 245°
2026-04-23 22:23 71.97593 102.46272 107 ft 13 kts 246°
2026-04-23 22:23 71.97555 102.46003 105 ft 13 kts 244°
2026-04-23 22:23 71.97510 102.45814 104 ft 9 kts 205°
2026-04-23 22:24 71.97459 102.45785 102 ft 7 kts 183°
2026-04-23 22:24 71.97407 102.45777 101 ft 7 kts 181°
2026-04-23 22:24 71.97366 102.45815 101 ft 4 kts 131°
2026-04-23 22:24 71.97359 102.45886 101 ft 2 kts 97°
2026-04-23 22:25 71.97358 102.45919 101 ft 0 kts 90°
2026-04-23 22:25 71.97358 102.45940 101 ft 2 kts 90°
2026-04-23 22:25 71.97363 102.46030 102 ft 4 kts 66°
2026-04-23 22:25 71.97394 102.46247 105 ft 36 kts 65°
2026-04-23 22:26 71.97465 102.46745 110 ft 58 kts 62°
2026-04-23 22:26 71.97480 102.46840 110 ft 60 kts 62°
2026-04-23 22:26 71.97612 102.47688 105 ft 77 kts 65°
2026-04-23 22:26 71.97920 102.49781 81 ft 136 kts 64°
2026-04-23 22:27 71.98390 102.52855 509 ft 155 kts 57°
2026-04-23 22:27 71.99192 102.55087 1230 ft 164 kts 26°
2026-04-23 22:27 72.00359 102.55386 1840 ft 188 kts 344°
2026-04-23 22:27 72.01513 102.52935 2615 ft 212 kts 313°
2026-04-23 22:28 72.02205 102.48612 3546 ft 228 kts 285°
2026-04-23 22:28 72.02221 102.43518 4531 ft 239 kts 259°
2026-04-23 22:28 72.01514 102.38538 5458 ft 257 kts 233°
2026-04-23 22:28 72.00243 102.34027 6150 ft 290 kts 225°
2026-04-23 22:29 71.98721 102.29266 6960 ft 318 kts 224°
2026-04-23 22:29 71.97096 102.24287 7904 ft 339 kts 225°
2026-04-23 22:29 71.95563 102.18601 9048 ft 350 kts 236°
2026-04-23 22:29 71.94325 102.11976 10274 ft 355 kts 245°
2026-04-23 22:30 71.93420 102.05602 11371 ft 359 kts 250°
2026-04-23 22:30 71.92439 101.97495 12692 ft 363 kts 253°
2026-04-23 22:30 71.91576 101.89867 13864 ft 365 kts 254°
2026-04-23 22:30 71.90716 101.82219 15011 ft 367 kts 254°
2026-04-23 22:31 71.89848 101.74588 16134 ft 368 kts 254°
2026-04-23 22:31 71.88966 101.66996 17228 ft 368 kts 254°
2026-04-23 22:31 71.88057 101.59302 18313 ft 367 kts 254°
2026-04-23 22:31 71.87145 101.51726 19352 ft 366 kts 254°
2026-04-23 22:32 71.86222 101.44192 20355 ft 365 kts 254°
2026-04-23 22:32 71.85288 101.36691 21320 ft 363 kts 254°
2026-04-23 22:32 71.84348 101.29247 22214 ft 362 kts 253°
2026-04-23 22:32 71.83400 101.21809 23050 ft 361 kts 253°
2026-04-23 22:33 71.82453 101.14479 23840 ft 361 kts 253°
2026-04-23 22:33 71.81486 101.07116 24603 ft 360 kts 253°
2026-04-23 22:33 71.80516 100.99819 25329 ft 360 kts 253°
2026-04-23 22:33 71.79538 100.92538 26032 ft 359 kts 253°
2026-04-23 22:34 71.78571 100.85392 26702 ft 357 kts 253°
2026-04-23 22:34 71.77598 100.78236 27351 ft 356 kts 253°
2026-04-23 22:34 71.76615 100.71063 27974 ft 355 kts 253°
2026-04-23 22:34 71.75619 100.63848 28568 ft 354 kts 253°
2026-04-23 22:35 71.74619 100.56677 29129 ft 354 kts 253°
2026-04-23 22:35 71.73629 100.49629 29655 ft 354 kts 253°
2026-04-23 22:35 71.72611 100.42438 30167 ft 353 kts 253°
2026-04-23 22:35 71.71594 100.35310 30649 ft 353 kts 253°
2026-04-23 22:36 71.70586 100.28272 31075 ft 354 kts 252°
2026-04-23 22:36 71.69554 100.21088 31480 ft 355 kts 252°
2026-04-23 22:36 71.68522 100.13944 31861 ft 356 kts 252°
2026-04-23 22:36 71.67486 100.06765 31801 ft 374 kts 252°
2026-04-23 22:37 71.66396 99.99137 31809 ft 386 kts 252°
2026-04-23 22:37 71.65278 99.91254 31804 ft 401 kts 252°
2026-04-23 22:37 71.64122 99.83061 31804 ft 415 kts 252°
2026-04-23 22:37 71.62948 99.74689 31804 ft 429 kts 252°
2026-04-23 22:38 71.61711 99.65831 31803 ft 443 kts 252°
2026-04-23 22:38 71.60459 99.56834 31803 ft 456 kts 252°
2026-04-23 22:38 71.59182 99.47626 31803 ft 469 kts 252°
2026-04-23 22:38 71.57872 99.38158 31803 ft 481 kts 252°
2026-04-23 22:39 71.56509 99.28291 31792 ft 492 kts 251°
2026-04-23 22:39 71.55139 99.18346 31803 ft 502 kts 251°
2026-04-23 22:39 71.52338 98.98000 31803 ft 515 kts 251°
2026-04-23 22:40 71.49517 98.77196 31799 ft 520 kts 251°
2026-04-23 22:41 71.45315 98.46301 31798 ft 522 kts 251°